Date String (YYYY-MM-DD hh:mm:ss) UTC,Instrument flags,Ambient pressure (hPa),Sample flow (lpm),Bypass flow (lpm),Sample temperature (°C),Ambient temperature (°C),ASC tube jacket temperature (°C),LED temperature (°C),Box temperature (°C),Sample RH (%),Span deviation,Mass concentration (μg/m³),Mass concentration (μg/m³),Mass concentration (μg/m³)
DateTimeUTC,F1_M11,P_M11,Q1_M11,Q2_M11,T1_M11,T2_M11,T3_M11,T4_M11,T5_M11,U1_M11,ZSPAN_M11,X0_M11,X2_M11,X1_M11
2022-06-27 14:00:00,,0835.0,4.99,0.00,30.1,29.1,00.0,38.9,31.9,23.7,0000.0,0009.72,0004.65,0004.10
2022-06-27 14:01:00,,0835.1,5.00,0.00,30.1,29.1,00.0,38.9,31.9,24.0,0000.0,0009.73,0004.67,0004.11
2022-06-27 14:02:00,,0835.1,5.01,0.00,30.1,29.1,00.0,38.9,31.9,24.2,0000.0,0009.75,0004.70,0004.13
2022-06-27 14:03:00,,0835.1,4.98,0.00,30.1,29.1,00.0,38.9,31.9,24.0,0000.0,0009.94,0004.76,0004.15
2022-06-27 14:04:00,,0835.1,5.01,0.00,30.1,29.1,00.0,38.9,32.0,24.0,0000.0,0010.29,0004.81,0004.18
2022-06-27 14:05:00,,0835.1,5.00,0.00,30.1,29.1,00.0,38.9,32.0,24.1,0000.0,0010.78,0004.80,0004.21
2022-06-27 14:06:00,,0835.1,5.01,0.00,30.1,29.1,00.0,38.9,32.0,24.1,0000.0,0011.68,0004.80,0004.22
2022-06-27 14:07:00,,0835.1,5.00,0.00,30.1,29.1,00.0,38.9,32.0,24.3,0000.0,0011.19,0004.82,0004.22
2022-06-27 14:08:00,,0835.1,4.99,0.00,30.1,29.1,00.0,38.9,32.0,24.4,0000.0,0010.11,0004.83,0004.24
2022-06-27 14:09:00,,0835.1,5.00,0.00,30.1,29.2,00.0,38.9,32.0,24.4,0000.0,0010.06,0004.87,0004.27
2022-06-27 14:10:00,,0835.1,5.01,0.00,30.1,29.2,00.0,38.9,32.0,24.8,0000.0,0010.06,0004.88,0004.31
2022-06-27 14:11:00,,0835.1,5.00,0.00,30.1,29.2,00.0,39.0,32.0,24.7,0000.0,0010.09,0004.93,0004.34
2022-06-27 14:12:00,,0835.1,5.00,0.00,30.2,29.2,00.0,39.0,32.0,24.7,0000.0,0010.19,0004.97,0004.36
2022-06-27 14:13:00,,0835.1,4.99,0.00,30.2,29.2,00.0,39.0,32.0,24.5,0000.0,0010.31,0005.03,0004.39
2022-06-27 14:14:00,,0835.1,5.00,0.00,30.2,29.2,00.0,39.0,32.0,24.7,0000.0,0010.48,0005.10,0004.43
2022-06-27 14:15:00,,0835.1,5.00,0.00,30.2,29.2,00.0,39.0,32.0,24.8,0000.0,0010.58,0005.14,0004.45
2022-06-27 14:16:00,,0835.1,4.99,0.00,30.2,29.2,00.0,39.0,32.0,24.9,0000.0,0010.16,0005.15,0004.46
2022-06-27 14:17:00,,0835.1,5.00,0.00,30.2,29.2,00.0,39.0,32.0,24.9,0000.0,0009.28,0005.18,0004.47
2022-06-27 14:18:00,,0835.1,5.00,0.00,30.2,29.2,00.0,39.0,32.0,24.8,0000.0,0009.34,0005.21,0004.49
2022-06-27 14:19:00,,0835.1,4.98,0.00,30.2,29.2,00.0,39.0,32.1,24.7,0000.0,0009.52,0005.23,0004.52
2022-06-27 14:20:00,,0835.1,5.01,0.00,30.2,29.3,00.0,39.0,32.1,24.8,0000.0,0009.70,0005.23,0004.53
2022-06-27 14:21:00,,0835.1,5.00,0.00,30.2,29.3,00.0,39.0,32.1,24.9,0000.0,0009.98,0005.25,0004.54
2022-06-27 14:22:00,,0835.2,5.00,0.00,30.2,29.3,00.0,39.0,32.1,24.1,0000.0,0010.26,0005.25,0004.55
2022-06-27 14:23:00,,0835.1,5.00,0.00,30.2,29.3,00.0,39.0,32.1,23.7,0000.0,0010.56,0005.26,0004.57
2022-06-27 14:24:00,,0835.1,4.99,0.00,30.2,29.3,00.0,39.0,32.1,23.7,0000.0,0010.90,0005.24,0004.59
2022-06-27 14:25:00,,0835.1,5.00,0.00,30.3,29.3,00.0,39.1,32.1,24.1,0000.0,0010.88,0005.21,0004.60
2022-06-27 14:26:00,,0835.1,5.01,0.00,30.3,29.3,00.0,39.1,32.1,24.0,0000.0,0010.70,0005.22,0004.60
2022-06-27 14:27:00,,0835.1,5.00,0.00,30.3,29.3,00.0,39.1,32.1,24.3,0000.0,0010.66,0005.26,0004.62
2022-06-27 14:28:00,,0835.1,5.00,0.00,30.3,29.3,00.0,39.1,32.1,24.1,0000.0,0010.66,0005.29,0004.64
2022-06-27 14:29:00,,0835.1,5.00,0.00,30.3,29.3,00.0,39.1,32.1,23.8,0000.0,0011.21,0005.36,0004.66
2022-06-27 14:30:00,,0835.1,4.99,0.00,30.3,29.3,00.0,39.1,32.1,24.2,0000.0,0011.57,0005.41,0004.67
2022-06-27 14:31:00,,0835.1,5.00,0.00,30.3,29.3,00.0,39.1,32.1,24.2,0000.0,0011.66,0005.46,0004.68
2022-06-27 14:32:00,,0835.1,5.01,0.00,30.3,29.3,00.0,39.1,32.1,24.3,0000.0,0011.75,0005.49,0004.70
2022-06-27 14:33:00,,0835.1,4.99,0.00,30.3,29.3,00.0,39.1,32.1,24.3,0000.0,0011.99,0005.50,0004.71
2022-06-27 14:34:00,,0835.1,4.98,0.00,30.3,29.3,00.0,39.1,32.1,24.3,0000.0,0011.66,0005.51,0004.71
2022-06-27 14:35:00,,0835.1,5.00,0.00,30.3,29.3,00.0,39.1,32.1,24.3,0000.0,0011.64,0005.54,0004.71
2022-06-27 14:36:00,,0835.1,5.00,0.00,30.3,29.3,00.0,39.1,32.1,24.3,0000.0,0011.59,0005.54,0004.72
2022-06-27 14:37:00,,0835.1,5.01,0.00,30.3,29.3,00.0,39.1,32.1,24.3,0000.0,0011.76,0005.54,0004.72
2022-06-27 14:38:00,,0835.1,5.01,0.00,30.3,29.3,00.0,39.1,32.1,24.3,0000.0,0011.76,0005.54,0004.73
2022-06-27 14:39:00,,0835.1,5.00,0.00,30.3,29.3,00.0,39.1,32.1,24.6,0000.0,0011.81,0005.54,0004.72
2022-06-27 14:40:00,,0835.0,5.00,0.00,30.3,29.1,00.0,39.1,32.1,24.1,0000.0,0011.47,0005.49,0004.69
2022-06-27 14:41:00,,0835.1,5.00,0.00,30.3,28.3,00.0,39.0,31.9,24.2,0000.0,0011.12,0005.42,0004.66
2022-06-27 14:42:00,,0835.1,5.00,0.00,30.2,27.6,00.0,39.0,31.7,24.2,0000.0,0011.07,0005.38,0004.63
2022-06-27 14:43:00,,0835.1,5.00,0.00,30.1,27.5,00.0,38.9,31.6,24.5,0000.0,0011.07,0005.35,0004.60
2022-06-27 14:44:00,,0835.1,5.00,0.00,30.0,27.5,00.0,38.9,31.6,24.4,0000.0,0010.77,0005.32,0004.58
2022-06-27 14:45:00,,0835.0,5.00,0.00,29.9,27.6,00.0,38.9,31.5,24.7,0000.0,0010.81,0005.31,0004.57
2022-06-27 14:46:00,,0835.1,5.01,0.00,29.9,27.7,00.0,38.8,31.5,24.8,0000.0,0010.59,0005.28,0004.54
2022-06-27 14:47:00,,0835.1,5.00,0.00,29.9,27.9,00.0,38.8,31.5,24.6,0000.0,0010.64,0005.28,0004.50
2022-06-27 14:48:00,,0835.1,4.98,0.00,29.8,28.0,00.0,38.8,31.6,25.2,0000.0,0010.40,0005.23,0004.46
2022-06-27 14:49:00,,0835.0,5.00,0.00,29.8,28.1,00.0,38.8,31.6,25.2,0000.0,0010.51,0005.23,0004.43
2022-06-27 14:50:00,,0835.1,5.01,0.00,29.8,28.2,00.0,38.8,31.6,25.6,0000.0,0010.53,0005.25,0004.42
2022-06-27 14:51:00,,0835.1,5.00,0.00,29.8,28.3,00.0,38.7,31.6,25.5,0000.0,0010.64,0005.27,0004.43
2022-06-27 14:52:00,,0835.1,5.00,0.00,29.8,28.4,00.0,38.7,31.6,25.3,0000.0,0010.31,0005.26,0004.44
2022-06-27 14:53:00,,0835.1,5.00,0.00,29.8,28.5,00.0,38.7,31.6,25.4,0000.0,0010.15,0005.28,0004.46
2022-06-27 14:54:00,,0835.1,5.00,0.00,29.8,28.5,00.0,38.7,31.6,25.6,0000.0,0009.95,0005.27,0004.46
2022-06-27 14:55:00,,0835.1,5.00,0.00,29.8,28.6,00.0,38.7,31.7,25.8,0000.0,0009.85,0005.27,0004.45
2022-06-27 14:56:00,,0835.1,5.00,0.00,29.8,28.6,00.0,38.7,31.7,25.8,0000.0,0009.95,0005.28,0004.45
2022-06-27 14:57:00,,0835.0,5.00,0.00,29.9,28.7,00.0,38.7,31.7,25.6,0000.0,0009.94,0005.30,0004.47
2022-06-27 14:58:00,,0835.1,5.00,0.00,29.9,28.7,00.0,38.7,31.7,25.6,0000.0,0009.81,0005.29,0004.49
2022-06-27 14:59:00,,0835.0,5.00,0.00,29.9,28.8,00.0,38.7,31.7,25.9,0000.0,0009.70,0005.29,0004.50
